Regional Weather Roundup
Issued by NWS Raleigh/Durham, NC

Current Version | Previous Version | Text Only | Print | Product List | Glossary On
Versions: 1 2 3 4 5 6 7 8 9 10 11 12 13 14 15 16 17 18 19 20 21 22 23 24 25 26 27 28
000
ASUS42 KRAH 221610
RWRRAH
NORTH CAROLINA WEATHER ROUNDUP
NATIONAL WEATHER SERVICE RALEIGH NC
1200 PM EDT TUE MAY 22 2018

NOTE: "FAIR" INDICATES FEW OR NO CLOUDS BELOW 12,000 FEET WITH NO
SIGNIFICANT WEATHER AND/OR OBSTRUCTIONS TO VISIBILITY.

NCZ001-053-055-056-065-067-221700-
WESTERN NORTH CAROLINA

CITY           SKY/WX    TMP DP  RH WIND       PRES   REMARKS
ASHEVILLE      PTSUNNY   75  62  64 S12       30.20F
JEFFERSON      CLOUDY    72  59  63 SW3       30.23F
MORGANTON      FAIR      78  66  67 SW6       30.20F
HICKORY        FAIR      76  70  82 VRB3      30.16F
RUTHERFORDTON  FAIR      77  67  72 SW6       30.17F
MOUNT AIRY     NOT AVBL
BOONE          PTSUNNY   73  54  51 CALM      30.25S
$$

NCZ021-022-025-041-071-084-088-221700-
CENTRAL NORTH CAROLINA

CITY           SKY/WX    TMP DP  RH WIND       PRES   REMARKS
CHARLOTTE      PTSUNNY   81  68  64 S8        30.16S
GREENSBORO     PTSUNNY   79  68  69 SW12      30.15S
WINSTON-SALEM  FAIR      79  67  66 VRB5      30.16F
RALEIGH-DURHAM PTSUNNY   77  72  84 W8        30.15S
FORT BRAGG     FAIR      83  66  56 SW10      30.14F
FAYETTEVILLE   FAIR      82  66  58 S10       30.15S
BURLINGTON     FAIR      82  69  64 SW12      30.14S
LAURINBURG     PTSUNNY   81  68  64 MISG      30.16F
$$

NCZ011-015-027-028-043-044-047-080-103-221700-
NORTHEASTERN NORTH CAROLINA

CITY           SKY/WX    TMP DP  RH WIND       PRES   REMARKS
ROCKY MT-WILSO FAIR      81  70  69 VRB7      30.13F
GREENVILLE     FAIR      81  72  74 W5        30.15S
WASHINGTON     FAIR      80  72  77 SW7       30.14F
ELIZABETH CITY PTSUNNY   80  72  76 W8        30.12F
MANTEO         CLOUDY    78  71  79 W10       30.13F
CAPE HATTERAS  FAIR      77  72  84 SW10      30.16S
$$

NCZ078-087-090-091-093-098-101-221700-
SOUTHEASTERN NORTH CAROLINA

CITY           SKY/WX    TMP DP  RH WIND       PRES   REMARKS
LUMBERTON      FAIR      84  68  58 SW10      30.15S
GOLDSBORO      FAIR      82  69  64 S7        30.13S
KINSTON        FAIR      81  70  69 SW7       30.15F
KENANSVILLE    CLOUDY    82  72  69 S6        30.16F
NEW BERN       FAIR      80  70  71 SW9       30.16F
CHERRY POINT   NOT AVBL
BEAUFORT       PTSUNNY   78  72  81 SW12      30.17S
JACKSONVILLE   PTSUNNY   81  71  71 W10       30.15F
WILMINGTON     PTSUNNY   79  68  69 S12       30.16F
$$





USA.gov is the U.S. government's official web portal to all federal, state and local government web resources and services.